Home   Weather   Kraków   Past weeks

Flag for Poland Past Weather in Kraków, Poland — Yesterday and Last 2 Weeks

Now
73 °F

Scattered clouds.


Feels Like: 76 °F
Forecast: 55 / 64 °F
Wind: 15 mph from Northwest

Location: Krakow Airport

Current Time: Aug 19, 2017 at 3:11:35 pm

Latest Report: Aug 19, 2017 at 2:30 pm


Visibility: N/A

Pressure: 30.04 "Hg

Humidity: 65%

Dew Point: 61 °F

Location of KrakówLocation

Past Weather in Kraków — Graph

°F

Kraków Temperature Yesterday

Maximum temperature yesterday: 90 °F (at 3:30 pm)
Minimum temperature yesterday: 59 °F (at 5:30 am)
Average temperature yesterday: 74 °F

High & Low Weather Summary for the Past Weeks

 TemperatureHumidityPressure
High95 °F (Aug 11, 4:00 pm)100% (Aug 6, 11:00 pm)30.24 "Hg (Aug 6, 11:00 pm)
Low50 °F (Aug 8, 5:00 am)29% (Aug 18, 3:30 pm)29.77 "Hg (Aug 11, 7:30 pm)
Average70 °F69%30.06 "Hg
* Reported Aug 4 2:00 pm — Aug 19 2:00 pm, Kraków. Weather by CustomWeather, © 2017

Note: Actual official high and low records may vary slightly from our data, if they occured in-between our weather recording intervals... More about our weather records

Advertising

Kraków Weather History for the Previous 24 Hours

Scroll right to see more
 ConditionsComfort  
Time TempWeatherWind HumidityBarometerVisibility
2:00 pm
Sat, Aug 19
73 °FScattered clouds.16 mph61%30.04 "HgN/A
1:30 pm75 °FPassing clouds.16 mph57%30.04 "HgN/A
1:00 pm75 °FPassing clouds.16 mph57%30.04 "HgN/A
12:30 pm75 °FScattered clouds.16 mph57%30.01 "HgN/A
12:00 pm77 °FPassing clouds.15 mph54%30.01 "HgN/A
11:30 am77 °FPassing clouds.16 mph54%30.01 "HgN/A
11:00 am79 °FPassing clouds.18 mph58%29.98 "HgN/A
10:30 am79 °FPassing clouds.16 mph54%29.98 "HgN/A
10:00 am81 °FSunny.14 mph51%29.98 "Hg10 mi
9:30 am79 °FSunny.20 mph51%29.95 "Hg10 mi
9:00 am77 °FSunny.15 mph54%29.95 "Hg10 mi
8:30 am73 °FPassing clouds.3 mph61%29.95 "HgN/A
8:00 am73 °FSunny.1 mph61%29.95 "Hg10 mi
7:30 am72 °FSunny.2 mph65%29.92 "Hg10 mi
7:00 am66 °FSunny.2 mph78%29.95 "Hg10 mi
6:30 am64 °FPassing clouds.3 mph78%29.92 "HgN/A
6:00 am61 °FSunny.1 mph88%29.92 "Hg10 mi
5:30 am61 °FClear.5 mph88%29.92 "Hg10 mi
5:00 am61 °FClear.6 mph88%29.92 "Hg10 mi
4:30 am61 °FClear.5 mph88%29.92 "Hg10 mi
4:00 am61 °FClear.2 mph94%29.92 "Hg10 mi
3:30 am63 °FClear.3 mph88%29.92 "Hg10 mi
3:00 am63 °FClear.1 mph88%29.95 "Hg10 mi
2:30 am63 °FClear.6 mph88%29.95 "Hg10 mi
2:00 am64 °FClear.1 mph83%29.95 "Hg10 mi
1:30 am64 °FClear.1 mph83%29.95 "Hg10 mi
1:00 am66 °FClear.1 mph78%29.95 "Hg10 mi
12:30 am66 °FClear.1 mph78%29.95 "Hg10 mi
12:00 am68 °FClear.1 mph73%29.95 "Hg10 mi
11:30 pm
Fri, Aug 18
68 °FClear.2 mph73%29.95 "Hg10 mi
11:00 pm70 °FClear.1 mph69%29.95 "Hg10 mi
10:30 pm70 °FClear.1 mph69%29.95 "Hg10 mi
10:00 pm73 °FClear.1 mph61%29.95 "Hg10 mi
9:30 pm73 °FClear.1 mph61%29.95 "Hg10 mi
9:00 pm77 °FClear.1 mph54%29.98 "Hg10 mi
8:30 pm75 °FClear.2 mph61%29.98 "Hg10 mi
8:00 pm77 °FClear.1 mph57%29.98 "Hg10 mi
7:30 pm82 °FSunny.2 mph48%29.98 "Hg10 mi
7:00 pm86 °FSunny.2 mph35%29.98 "Hg10 mi
6:30 pm88 °FSunny.2 mph33%29.98 "Hg10 mi
6:00 pm88 °FSunny.5 mph33%29.98 "Hg10 mi
5:30 pm88 °FPassing clouds.3 mph31%29.98 "HgN/A
5:00 pm90 °FSunny.5 mph29%30.01 "Hg10 mi
4:30 pm88 °FSunny.3 mph31%30.01 "Hg10 mi
4:00 pm88 °FSunny.3 mph31%30.01 "Hg10 mi
3:30 pm90 °FPassing clouds.5 mph29%30.04 "HgN/A
3:00 pm88 °FSunny.3 mph31%30.04 "Hg10 mi
Weather by CustomWeather, © 2017

See weather overviewHow to use our weather pages